Location: Unspecified
(0.0000°N, 0.0000°E)
Time: 22:24:55
(UTC+02:00)

Haruka - Pass Details

Date: 27 June 2018
Orbit: 538 x 21218 km, 31.3° (Epoch: 20 July)

Event Time Altitude Azimuth Distance (km) Brightness Sun altitude
Exits shadow 05:30:11 39° 227° (SW) 9,074 7.8 -34.6°
Maximum altitude 06:36:06 88° 295° (WNW) 17,383 9.7 -19.9°
Drops below altitude 10° 10:28:24 10° 50° (NE) 10,498 10.2 33.0°
Sets 10:34:29 0° 55° (NE) 10,065 9.7 34.3°
